Regional Weather Roundup
Issued by NWS

Home | Current Version | Previous Version | Text Only | Print | Product List | Glossary On
Versions: 1 2 3 4 5 6 7 8 9 10 11 12 13 14 15 16 17 18 19 20 21 22 23 24 25 26 27 28 29 30 31 32 33 34 35 36 37 38 39 40 41 42 43 44 45 46 47 48 49 50
000
ASUS46 KSTO 280904
RWRCA

NORTHERN AND CENTRAL CA REGIONAL WEATHER ROUNDUP
NATIONAL WEATHER SERVICE SACRAMENTO CA
200 AM PDT TUE JUL 28 2015

NOTE: FAIR INDICATES FEW OR NO CLOUDS BELOW 12,000 FEET WITH NO
SIGNIFICANT WEATHER AND/OR OBSTRUCTIONS TO VISIBILITY.

CAZ001-003-281000-
NORTHWEST AREA

CITY           SKY/WX    TMP DP  RH WIND       PRES   REMARKS
CRESCENT CITY  CLEAR     58  50  75 N12       30.02S
UKIAH          CLEAR     62  47  57 CALM      29.92S
$$

CAZ006-505>513-281000-
BAY AREA

CITY           SKY/WX    TMP DP  RH WIND       PRES   REMARKS
SANTA ROSA     CLEAR     55  50  83 CALM      29.87S
SAN RAFAEL     N/A       66  MM  MM MISG
NAPA           CLEAR     58  55  90 SE3       29.87F
CONCORD        CLEAR     64  55  72 CALM      29.87R
OAKLAND CITY   N/A       63  MM  MM MISG
OAKLAND        CLEAR     61  54  77 NW5       29.88F
SAN FRAN CITY  N/A       59  MM  79 MISG
SAN FRAN ARPT  CLEAR     60  54  80 NW10      29.88F
LIVERMORE      CLEAR     67  45  45 CALM      29.87S
HAYWARD        CLEAR     62  54  74 CALM      29.88S
REDWOOD CITY   N/A       MM  MM  MM MISG
MOFFETT ARPT   CLEAR     65  57  75 CALM      29.88F
SAN JOSE ARPT  CLEAR     65  57  75 CALM      29.88F
$$
CAZ034-037-514>518-281000-
CENTRAL COAST

CITY           SKY/WX    TMP DP  RH WIND       PRES   REMARKS
WATSONVILLE    CLEAR     56  53  90 CALM      29.89F
SALINAS        CLEAR     59  55  87 W3        29.89F
MONTEREY       CLEAR     58  53  84 E3        29.90F
SAN LUIS OBISP CLOUDY    59  56  89 SE3       29.90F
SANTA MARIA    CLOUDY    61  57  87 CALM      29.90F
$$
CAZ015-016-281000-
NORTHERN SACRAMENTO VALLEY

CITY           SKY/WX    TMP DP  RH WIND       PRES   REMARKS
REDDING        CLEAR     82  40  22 N10       29.90F
RED BLUFF      CLEAR     81  39  22 NW13      29.89S
OROVILLE       CLEAR     72  43  35 NW5       29.85S
$$
CAZ016>018-281000-
SOUTHERN SACRAMENTO VALLEY

CITY           SKY/WX    TMP DP  RH WIND       PRES   REMARKS
AUBURN         CLEAR     72  45  37 E5        29.90S
BEALE AFB      CLEAR     70  39  32 E3        29.81S
LINCOLN        FAIR      61  45  55 CALM      29.82S
MARYSVILLE     CLEAR     70  47  43 NE5       29.83R
SAC INTL ARPT  CLEAR     65  48  54 W3        29.81F
MATHER AIRPORT NOT AVBL
DOWNTOWN SAC   N/A       69  MM  MM MISG
SAC EXEC ARPT  CLEAR     65  51  60 CALM      29.82F
VACAVILLE      CLEAR     63  45  51 CALM      29.84S
TRAVIS AFB     CLEAR     64  54  70 SW10      29.82S
$$
CAZ019>021-281000-
SAN JOAQUIN VALLEY

CITY           SKY/WX    TMP DP  RH WIND       PRES   REMARKS
STOCKTON       CLEAR     67  49  52 NE6       29.83R
MODESTO        CLEAR     69  51  52 CALM      29.83S
MERCED         CLEAR    N/A N/A N/A MISG      29.84S
LEMOORE        CLEAR     67  43  41 CALM      29.85F
FRESNO         CLEAR     75  49  39 NW8       29.85S
HANFORD        CLEAR     75  50  41 NW6       29.85S
PORTERVILLE    CLEAR     70  46  43 CALM      29.86S
BAKERSFIELD    CLEAR     78  44  29 CALM      29.85F
$$
CAZ011-012-071-281000-
NORTHERN MOUNTAINS

CITY           SKY/WX    TMP DP  RH WIND       PRES   REMARKS
YREKA          CLEAR     64  41  42 N13       30.15S
MOUNT SHASTA   CLEAR     60  41  49 VRB5      30.16R
ALTURAS        CLEAR     54  29  38 N7        30.20S
$$
CAZ011-012-071-281000-
SIERRA NEVADA MTNS

CITY           SKY/WX    TMP DP  RH WIND       PRES   REMARKS
BLUE CANYON    CLEAR     66  26  22 NE10      30.15S
TRUCKEE        CLEAR     41  34  75 CALM      30.23S
TAHOE VLY ARPT CLEAR     49  34  56 SW3       30.23S
MAMMOTH LAKES  FAIR      50  25  37 W6        30.28S
$$



USA.gov is the U.S. government's official web portal to all federal, state and local government web resources and services.